Kuiper-00025

operational
NORAD ID: 63739 Int'l Des: 2025-088 Owner: KUIP Country: US Constellation: kuiper
LEOCIRCULAR

About Kuiper-00025

Description loading...

Live Position

Loading 3D Globe...

Upcoming Passes

Altitude History

Altitude vs Time

uPlot chart will show altitude changes over time

Two-Line Element Set

1 63739U 25088R 25312.63645220 .00006202 00000-0 83366-3 0 9991
2 63739 51.9012 276.8642 0009831 37.7021 322.4629 14.80327755 29870
Epoch: Nov 8, 2025 • Age: 37 hours

Current Status

Altitude 623.0 km
Velocity 7.55 km/s
Sub-Earth Point 4.19°N, 155.19°E
Launch Date Apr 28, 2025
Age 0.5 years
Type internet

Technical Details

Classification Payload
Mass 490.00 kg
Dry Mass 490.00 kg
Total Mass 490.00 kg
Length 1.80 m
Diameter 0.70 m
Span 5.00 m
Shape Box + 2 pan
Manufacturer KUIP
Bus Type Kuiper
Phase Status In Orbit
Owner/State KUIP/US

Large Constellations

Loading constellations...